{"data":{"norad_id":47277,"intl_designator":"2020-100V","name":"ONEWEB-0131","alt_names":[],"object_type":"PAYLOAD","status":"ACTIVE","operator":null,"country":"UK","launch_date":"2020-12-18","launch_site_code":"VOSTO","launch_vehicle":null,"mission":null,"orbit_class":"UNKNOWN","rcs_meters":null,"size_class":null,"mass_kg":null,"dimensions":null,"purposes":["comms"],"wikipedia_slug":null,"has_3d_model":false,"image_url":null,"decayed_at":null,"tle_current":{"epoch":"2026-09-19T11:48:17.516160Z","epoch_age_seconds":101568,"freshness":"FRESH","line1":"1 47277U 20100V   26262.49186940  .00000454  00000+0  12253-2 0  9996","line2":"2 47277  87.8973 331.9424 0001898  94.7197 265.4148 13.12442650277059","mean_motion":13.1244265,"eccentricity":0.0001898,"inclination_deg":87.8973,"raan_deg":331.9424,"arg_perigee_deg":94.7197,"mean_anomaly_deg":265.4148,"bstar":0.0012253,"rev_number":27705,"period_min":109.71907991561,"perigee_km":1212.2837054313,"apogee_km":1215.1655761101,"semimajor_km":7591.8616407707,"source":"CELESTRAK","updated_at":"2026-09-20T09:00:44.579872Z"}}}